Wind_Speed
8 4 4 2 3 4 5 2 3 4 4 5 6 7 7 9 10 11 12 12 11 9 8 10 10 8 10 11 12 12 12 12 12
8 6 5 0 2 3 3 3 4 6 7 8 9 9 11 12 12 12 12 11 10 11 10 13 13 11 12 13 14 16 17 18 17
7 7 3 2 2 3 5 6 6 7 8 9 9 10 12 13 14 14 14 12 9 11 12 13 14 15 15 16 17 17 18 18 18
6 7 5 3 4 5 7 8 8 8 9 9 10 10 11 13 14 14 12 9 9 10 12 13 14 15 15 17 18 18 19 20 20
3 4 4 4 5 7 8 6 6 6 8 9 9 10 12 13 15 14 14 12 12 13 14 14 15 17 17 17 18 19 20 21 22
5 5 4 2 3 3 4 4 6 8 10 11 12 13 15 16 17 18 17 17 17 16 17 18 21 20 20 20 20 20 22 22 23
6 4 4 3 3 4 5 6 8 10 11 12 12 13 14 15 18 20 21 21 21 19 22 23 22 23 24 24 20 22 22 23 25
4 4 5 8 9 9 10 8 7 9 11 10 10 10 10 10 12 14 14 15 13 16 18 19 18 19 21 23 25 25 23 25 26
3 5 4 5 5 4 5 5 5 6 8 8 8 9 9 11 12 13 14 14 14 15 16 17 17 18 18 19 22 25 25 24 24
3 1 5 5 4 5 5 5 7 7 8 10 11 12 13 14 15 16 15 14 14 14 16 16 16 15 14 14 15 18 18 20 22
5 5 6 8 7 6 6 7 8 10 11 12 13 14 16 16 15 12 12 14 13 15 17 16 17 15 17 16 17 18 18 18 18
5 6 5 5 5 4 5 7 9 11 12 14 14 15 16 13 9 10 17 16 15 17 15 17 14 17 19 19 19 19 19 20 22
5 3 5 4 4 6 9 11 11 12 14 15 14 18 11 8 9 13 19 17 21 15 18 15 17 20 22 20 20 21 23 24 24
6 5 5 5 6 8 10 11 11 14 16 15 16 16 7 7 10 21 20 20 19 18 18 21 26 25 20 21 21 22 22 23 27
7 6 6 6 7 8 9 9 10 12 17 13 19 9 4 7 8 25 16 23 15 21 22 29 31 27 23 27 23 22 26 27 27
8 8 7 7 8 9 10 10 12 10 19 9 17 5 4 9 17 17 26 18 21 28 23 31 29 26 29 23 24 27 29 26 28
9 8 8 7 7 8 9 12 11 8 15 8 4 4 6 6 29 8 25 14 32 17 25 29 28 28 24 27 29 27 29 28 27
9 8 7 7 7 8 9 10 11 10 10 10 8 4 3 10 4 24 9 31 19 26 27 27 26 24 27 31 28 30 26 31 32
7 7 6 7 7 7 8 9 11 12 11 7 12 6 10 3 6 6 28 17 28 25 25 28 23 28 27 27 29 24 31 33 29
7 6 6 6 6 7 9 10 12 13 13 14 15 13 15 11 6 10 8 27 26 27 27 26 30 30 27 25 25 34 31 27 32
Wind_Direction
177 199 246 14 28 37 53 44 357 321 313 312 309 304 299 296 307 299 293 285 277 293 265 252 259 274 265 263 259 260 259 260 263
198 212 194 203 32 10 11 341 323 310 303 301 297 296 301 303 306 308 308 297 278 282 280 267 267 274 274 267 265 266 262 265 268
187 200 201 233 296 310 325 315 306 309 300 294 290 289 294 302 307 311 310 308 285 273 275 273 272 275 274 272 272 270 269 263 262
184 214 226 239 268 289 306 314 309 312 311 309 307 304 302 303 310 317 324 322 307 284 275 280 273 272 272 272 272 271 267 268 266
217 203 227 261 290 303 314 326 337 333 332 329 326 316 309 305 306 310 311 308 301 286 280 274 274 271 271 270 269 269 268 270 268
191 207 236 289 334 353 360 350 341 325 325 318 313 308 308 309 307 305 306 303 301 292 274 274 273 270 267 269 271 274 271 269 267
222 234 263 280 313 333 317 321 320 317 327 331 325 327 327 319 313 314 315 312 303 297 290 287 280 271 270 272 272 272 272 272 270
198 239 261 268 278 284 296 313 350 346 339 348 349 353 357 358 357 350 351 348 335 328 326 321 300 290 283 276 271 272 276 276 274
214 254 270 298 308 39 31 12 28 40 37 21 0 359 1 7 1 356 358 349 342 345 348 339 322 308 299 294 292 284 285 288 289
161 110 99 88 92 92 74 52 19 350 340 340 338 337 339 343 346 344 345 347 357 358 3 1 2 0 352 344 337 332 319 309 304
151 133 95 82 68 43 19 5 355 346 337 331 328 328 332 338 342 356 4 7 9 360 3 5 2 8 3 355 347 342 342 343 346
140 106 91 55 36 2 344 355 347 339 340 338 333 334 333 341 12 13 7 8 1 360 8 2 9 359 358 351 342 339 336 334 330
132 98 78 46 3 2 359 358 0 1 356 347 341 338 349 17 10 354 359 2 355 356 0 1 357 355 349 343 339 333 329 328 328
134 102 72 25 7 9 15 20 17 10 356 348 337 332 340 0 349 350 352 354 351 359 359 351 344 345 347 342 334 330 328 324 322
101 80 53 25 14 21 22 21 25 17 360 344 337 324 315 343 336 349 0 351 352 347 346 345 339 340 340 336 336 333 330 324 321
83 63 48 33 26 31 24 20 12 13 6 343 339 313 308 300 341 338 347 340 342 335 332 338 337 336 327 329 331 326 323 318 315
77 61 48 39 30 28 23 21 16 9 12 341 322 343 321 290 331 333 331 335 332 339 328 331 330 329 328 320 323 324 321 319 317
71 59 44 32 24 23 21 18 18 4 9 53 52 347 307 326 284 321 315 322 324 317 321 323 318 321 315 316 315 318 315 315 308
67 52 37 25 20 16 14 8 10 5 9 8 354 344 303 317 319 331 314 317 312 313 311 313 313 312 313 311 312 311 310 308 305
59 40 29 19 11 7 2 2 3 5 0 352 341 336 316 290 257 300 308 310 308 307 305 310 308 311 311 311 313 311 308 303 303
Height
793 793 793 792 793 793 793 793 793 793 793 792 792 792 790 790 789 788 787 787 786 786 786 787 787 786 786 787 787 787 787 787 787
791 792 792 792 793 793 793 793 793 793 792 791 791 790 789 788 787 786 785 785 784 784 784 786 785 784 784 785 785 785 785 785 784
791 792 792 792 792 792 792 792 791 790 790 790 789 788 787 786 785 784 782 782 781 782 782 783 782 782 782 782 782 782 782 781 782
791 792 792 792 792 792 791 790 790 789 788 787 786 785 785 783 782 781 780 779 779 779 779 779 779 779 779 778 778 778 777 777 777
791 792 792 791 791 791 790 789 788 788 787 786 785 784 782 781 780 779 778 778 776 776 776 776 776 776 775 774 774 773 774 773 773
790 791 791 790 789 789 788 787 787 786 786 784 783 782 780 779 778 777 775 775 774 772 772 772 772 771 770 769 769 769 768 767 767
789 789 791 790 789 788 788 787 786 785 784 782 781 779 777 776 775 774 773 771 771 770 769 769 767 767 765 765 764 764 762 761 762
788 790 789 789 789 788 787 786 785 784 783 781 779 778 776 775 774 773 771 770 769 768 765 763 762 761 761 761 759 759 757 757 755
788 789 788 788 787 787 786 785 784 782 782 781 779 777 775 774 772 771 769 767 766 764 763 761 759 758 757 756 754 754 752 752 750
788 788 788 787 787 786 785 783 782 781 780 779 777 775 774 771 769 768 766 764 763 762 760 759 757 755 754 753 751 750 748 747 746
787 787 787 787 786 785 784 782 781 780 778 776 775 773 772 770 768 766 765 763 761 760 759 758 756 754 752 751 749 747 746 745 743
787 787 788 787 786 785 783 781 780 778 777 775 773 771 769 768 767 766 764 763 761 759 758 756 755 753 751 750 748 745 744 742 740
787 788 788 787 786 784 782 780 779 778 776 774 772 770 768 767 766 765 764 762 760 758 756 755 753 751 749 748 746 743 741 738 735
787 788 788 788 786 784 783 781 780 778 776 773 771 768 767 766 764 763 761 761 758 757 755 753 750 749 747 745 743 741 738 736 732
788 789 788 788 786 785 783 782 781 779 776 772 769 765 765 763 762 761 759 757 755 754 752 749 746 744 743 741 739 737 734 731 728
789 789 789 788 787 785 784 782 781 778 776 771 766 763 762 760 759 757 756 755 753 751 750 748 746 743 741 738 736 733 731 728 725
789 790 790 789 788 786 785 783 781 780 777 774 770 767 761 758 758 756 754 752 751 748 747 745 744 741 738 735 732 729 726 723 719
789 790 790 789 788 787 786 784 782 780 778 776 775 774 773 762 754 753 752 751 749 747 744 742 740 738 735 732 729 726 723 719 715
790 790 790 789 789 788 787 785 783 780 778 776 776 776 774 771 759 751 749 748 746 743 740 738 735 733 730 728 725 722 719 715 710
790 790 789 789 789 788 787 785 783 781 779 777 774 772 770 769 766 753 748 745 742 738 735 732 730 727 724 722 719 717 713 709 706